Simultaneous Nadir Overpasses (SNOs) Predictions

Prediction of SNOs between FY3D and TERRA Satellite Orbit:

Table of predicted SNOs for the next 14.0 days since TLE Epoch: 9/21/2024
Index Date (FY3D) Time (FY3D) Lat,Lon (FY3D) SZA (FY3D ) Date (TERRA) Time (TERRA) Lat,Lon (TERRA) SZA (TERRA ) Distance(km) Time Diff (sec)
1 09/23/2024 10:43:48 76.24, 19.37 76.54 09/23/2024 10:44:14 76.25, 19.22 76.55 3.97 26
2 09/23/2024 11:34:32 -76.21,-173.20 103.48 09/23/2024 11:33:37 -76.21,-173.25 103.49 1.26 55
3 09/25/2024 21:56:31 76.29,-148.92 77.55 09/25/2024 21:57:00 76.28,-148.94 77.53 1.40 29
4 09/25/2024 22:47:15 -76.25, 18.53 102.48 09/25/2024 22:46:23 -76.24, 18.61 102.49 2.42 52
5 09/28/2024 09:09:13 76.30, 42.91 78.52 09/28/2024 09:09:45 76.30, 42.92 78.52 0.21 32
6 09/28/2024 09:59:57 -76.26,-149.62 101.51 09/28/2024 09:59:08 -76.27,-149.52 101.50 3.10 49
7 09/30/2024 20:21:55 76.33,-125.30 79.51 09/30/2024 20:22:29 76.33,-125.22 79.51 2.23 34
8 09/30/2024 21:12:39 -76.28, 42.18 100.53 09/30/2024 21:11:53 -76.26, 42.20 100.56 2.68 46
9 10/03/2024 07:34:36 76.32, 66.60 80.46 10/03/2024 07:35:13 76.31, 66.50 80.45 2.94 37



Historial Predications of SNOs between FY3D and TERRA
